![]() |
EMODnet Physics ERDDAP
Easier access to scientific data |
log in|
Brought to you by EMODnet Physics |
| Dataset Title: | NDBC - Collection of dew point temperature (DEWT) TimeSeries - IN SITU MultiPointTimeSeriesObservation
|
| Institution: | NDBC (Dataset ID: TS_DEWT_NDBC) |
| Information: | Summary
| License
| FGDC
| ISO 19115
| Metadata
| Background
| Subset
| Data Access Form
| Make a graph
|
| Name | Last modified | Size | Description | |
|---|---|---|---|---|
| Parent Directory | - | - | ||
| 42045_TS_DEWT_012004.nc | 02-Jan-2025 06:06 | 1472103 | ||
| 42045_TS_DEWT_012007.nc | 02-Jan-2025 06:10 | 1475483 | ||
| 42045_TS_DEWT_012008.nc | 02-Jan-2025 06:12 | 1465586 | ||
| 42045_TS_DEWT_012009.nc | 02-Jan-2025 06:13 | 1476385 | ||
| 42045_TS_DEWT_012010.nc | 02-Jan-2025 06:14 | 1471218 | ||
| 42045_TS_DEWT_012011.nc | 02-Jan-2025 06:16 | 1469872 | ||
| 42045_TS_DEWT_012014.nc | 02-Jan-2025 06:19 | 1460232 | ||
| 42045_TS_DEWT_012017.nc | 02-Jan-2025 06:22 | 1473182 | ||
| 42045_TS_DEWT_022004.nc | 02-Jan-2025 06:06 | 1155903 | ||
| 42045_TS_DEWT_022007.nc | 02-Jan-2025 06:10 | 1474055 | ||
| 42045_TS_DEWT_022009.nc | 02-Jan-2025 06:13 | 1155373 | ||
| 42045_TS_DEWT_022010.nc | 02-Jan-2025 06:15 | 1473579 | ||
| 42045_TS_DEWT_022011.nc | 02-Jan-2025 06:16 | 1143138 | ||
| 42045_TS_DEWT_022012.nc | 02-Jan-2025 06:18 | 1474374 | ||
| 42045_TS_DEWT_022014.nc | 02-Jan-2025 06:19 | 1472066 | ||
| 42045_TS_DEWT_022015.nc | 02-Jan-2025 06:19 | 1458476 | ||
| 42045_TS_DEWT_022017.nc | 02-Jan-2025 06:22 | 1476254 | ||
| 42045_TS_DEWT_032004.nc | 02-Jan-2025 06:06 | 1465095 | ||
| 42045_TS_DEWT_032007.nc | 02-Jan-2025 06:10 | 1625949 | ||
| 42045_TS_DEWT_032008.nc | 02-Jan-2025 06:12 | 1626457 | ||
| 42045_TS_DEWT_032009.nc | 02-Jan-2025 06:13 | 1626976 | ||
| 42045_TS_DEWT_032010.nc | 02-Jan-2025 06:15 | 1625109 | ||
| 42045_TS_DEWT_032011.nc | 02-Jan-2025 06:16 | 993885 | ||
| 42045_TS_DEWT_032012.nc | 02-Jan-2025 06:18 | 429605 | ||
| 42045_TS_DEWT_032014.nc | 02-Jan-2025 06:19 | 429673 | ||
| 42045_TS_DEWT_032017.nc | 02-Jan-2025 06:22 | 429615 | ||
| 42045_TS_DEWT_042004.nc | 02-Jan-2025 06:07 | 429623 | ||
| 42045_TS_DEWT_042007.nc | 02-Jan-2025 06:10 | 429622 | ||
| 42045_TS_DEWT_042008.nc | 02-Jan-2025 06:12 | 429617 | ||
| 42045_TS_DEWT_042009.nc | 02-Jan-2025 06:13 | 429588 | ||
| 42045_TS_DEWT_042011.nc | 02-Jan-2025 06:17 | 429551 | ||
| 42045_TS_DEWT_042017.nc | 02-Jan-2025 06:22 | 429384 | ||
| 42045_TS_DEWT_052004.nc | 02-Jan-2025 06:07 | 429612 | ||
| 42045_TS_DEWT_052007.nc | 02-Jan-2025 06:11 | 429300 | ||
| 42045_TS_DEWT_052008.nc | 02-Jan-2025 06:12 | 429612 | ||
| 42045_TS_DEWT_052009.nc | 02-Jan-2025 06:13 | 429610 | ||
| 42045_TS_DEWT_052011.nc | 02-Jan-2025 06:17 | 429617 | ||
| 42045_TS_DEWT_052017.nc | 02-Jan-2025 06:22 | 429625 | ||
| 42045_TS_DEWT_062004.nc | 02-Jan-2025 06:07 | 429612 | ||
| 42045_TS_DEWT_062007.nc | 02-Jan-2025 06:11 | 450692 | ||
| 42045_TS_DEWT_062008.nc | 02-Jan-2025 06:12 | 451086 | ||
| 42045_TS_DEWT_062009.nc | 02-Jan-2025 06:13 | 450885 | ||
| 42045_TS_DEWT_062011.nc | 02-Jan-2025 06:17 | 450363 | ||
| 42045_TS_DEWT_062017.nc | 02-Jan-2025 06:23 | 450665 | ||
| 42045_TS_DEWT_072004.nc | 02-Jan-2025 06:07 | 450932 | ||
| 42045_TS_DEWT_072007.nc | 02-Jan-2025 06:11 | 450772 | ||
| 42045_TS_DEWT_072008.nc | 02-Jan-2025 06:12 | 449883 | ||
| 42045_TS_DEWT_072009.nc | 02-Jan-2025 06:14 | 450304 | ||
| 42045_TS_DEWT_072015.nc | 02-Jan-2025 06:20 | 450577 | ||
| 42045_TS_DEWT_072018.nc | 02-Jan-2025 06:24 | 451182 | ||
| 42045_TS_DEWT_082004.nc | 02-Jan-2025 06:07 | 450796 | ||
| 42045_TS_DEWT_082007.nc | 02-Jan-2025 06:11 | 449992 | ||
| 42045_TS_DEWT_082009.nc | 02-Jan-2025 06:14 | 451011 | ||
| 42045_TS_DEWT_082016.nc | 02-Jan-2025 06:21 | 428368 | ||
| 42045_TS_DEWT_092006.nc | 02-Jan-2025 06:09 | 450423 | ||
| 42045_TS_DEWT_092007.nc | 02-Jan-2025 06:11 | 429835 | ||
| 42045_TS_DEWT_092009.nc | 02-Jan-2025 06:14 | 450654 | ||
| 42045_TS_DEWT_092016.nc | 02-Jan-2025 06:21 | 451613 | ||
| 42045_TS_DEWT_102006.nc | 02-Jan-2025 06:10 | 450817 | ||
| 42045_TS_DEWT_102007.nc | 02-Jan-2025 06:11 | 429838 | ||
| 42045_TS_DEWT_102008.nc | 02-Jan-2025 06:12 | 429832 | ||
| 42045_TS_DEWT_102009.nc | 02-Jan-2025 06:14 | 429838 | ||
| 42045_TS_DEWT_102016.nc | 02-Jan-2025 06:21 | 691582 | ||
| 42045_TS_DEWT_112006.nc | 02-Jan-2025 06:10 | 421654 | ||
| 42045_TS_DEWT_112008.nc | 02-Jan-2025 06:13 | 428565 | ||
| 42045_TS_DEWT_112009.nc | 02-Jan-2025 06:14 | 428964 | ||
| 42045_TS_DEWT_112010.nc | 02-Jan-2025 06:16 | 428618 | ||
| 42045_TS_DEWT_122006.nc | 02-Jan-2025 06:10 | 428618 | ||
| 42045_TS_DEWT_122007.nc | 02-Jan-2025 06:11 | 428618 | ||
| 42045_TS_DEWT_122008.nc | 02-Jan-2025 06:13 | 428926 | ||
| 42045_TS_DEWT_122009.nc | 02-Jan-2025 06:14 | 428617 | ||
| 42045_TS_DEWT_122010.nc | 02-Jan-2025 06:16 | 428096 | ||